Location: Kearney
(40.6990°N, 99.0810°W)
Time: 17:45:02
(UTC-05:00)

DELTA 2 R/B (1) - Pass Details

Date: 18 December 2017
Orbit: 791 x 802 km, 39.6° (Epoch: 20 April)

Event Time Altitude Azimuth Distance (km) Brightness Sun altitude
Rises 19:33:32 0° 280° (W) 3,286 7.9 -26.1°
Reaches altitude 10° 19:36:06 10° 274° (W) 2,356 7.0 -26.6°
Maximum altitude 19:41:22 45° 203° (SSW) 1,069 4.3 -27.6°
Enters shadow 19:42:19 41° 175° (S) 1,135 4.3 -27.7°
